Dewpoint
-10 -7 -5 -7 -9 -13 -14 -13 -14 -15 -17 -17 -15 -16 -17 -19 -8 -6 -0 -0 -1 -1 -1 -3 -5 -6 -7 -6 -5 -5 -5 -6 -6 -6 -8 -9 -5 2 5 8 10 7 10 12
-7 -6 -7 -12 -14 -14 -13 -12 -13 -14 -15 -16 -18 -18 -18 -13 -7 -2 -1 -1 -1 -3 -4 -4 -3 -2 -1 -2 -4 -4 -4 -4 -4 -5 -4 -3 -3 -5 1 6 8 8 12 11
-6 -7 -15 -15 -13 -13 -15 -13 -12 -13 -14 -16 -17 -16 -17 -9 -1 -1 -1 -1 -1 -1 -2 -4 -2 -1 -1 -1 -3 -4 -3 -3 -3 -3 -4 -5 -3 -2 -4 -2 4 7 9 12
-9 -10 -14 -15 -14 -15 -14 -12 -11 -11 -11 -12 -17 -13 -11 -7 -0 -2 -1 -1 -1 -2 -3 -2 -2 -3 -3 -4 -4 -4 -4 -3 -3 -3 -3 -2 -2 0 2 2 -1 1 6 9
-9 -13 -14 -13 -13 -15 -11 -13 -13 -12 -12 -13 -15 -14 -15 -4 1 -1 -2 -1 -2 -2 -2 -2 -2 -2 -2 -4 -5 -6 -6 -5 -2 -2 -2 -2 -2 -1 1 3 3 0 1 5
-11 -16 -15 -14 -13 -14 -14 -15 -13 -13 -12 -7 -11 -12 -9 -4 1 -1 -2 -2 -1 -1 -2 -2 -2 -2 -3 -5 -5 -6 -7 -8 -5 -2 -2 -2 -1 -1 -0 1 3 4 3 -1
-11 -12 -16 -15 -14 -14 -13 -10 -6 -5 -7 -5 -10 -8 1 0 -2 -2 -2 -1 -2 -2 -2 -2 -2 -2 -3 -5 -4 -4 -7 -8 -6 -2 -2 -2 -2 -1 -0 1 2 4 4 5
-6 -7 -12 -14 -14 -13 -11 -9 -3 -6 -3 -5 -9 -7 3 -1 -1 -1 -1 -2 -2 -2 -3 -3 -2 -2 -3 -3 -4 -5 -7 -7 -7 -3 -3 -3 -3 -2 -1 -0 1 2 3 5
-7 -7 -14 -14 -15 -14 -12 -12 -10 -6 -6 -7 -8 2 1 -0 -1 -2 -2 -2 -3 -3 -3 -3 -3 -3 -3 -4 -5 -6 -7 -7 -7 -4 -3 -3 -3 -3 -2 -1 -0 1 2 3
-8 -7 -12 -13 -14 -15 -14 -13 -4 -4 -0 -2 -5 -2 3 -0 -1 -2 -2 -3 -3 -4 -4 -3 -4 -4 -4 -6 -6 -6 -7 -7 -7 -5 -4 -4 -4 -4 -4 -2 -1 0 1 2
-10 -7 -8 -11 -11 -10 -9 -9 -11 -7 -2 -0 -1 -0 -2 -1 -1 -2 -3 -3 -4 -4 -5 -4 -5 -5 -6 -7 -7 -7 -7 -7 -7 -7 -4 -5 -5 -5 -5 -3 -2 -1 0 1
-9 -6 -5 -7 -11 -12 -9 -6 -4 -1 -2 1 -1 -1 -2 -2 -3 -3 -4 -5 -5 -5 -5 -5 -6 -7 -7 -7 -7 -7 -7 -7 -7 -7 -6 -5 -6 -6 -5 -4 -3 -2 -1 0
-8 -7 -3 -9 -9 -10 -10 -10 -8 1 -1 1 -1 -1 -1 -1 -2 -3 -4 -5 -6 -6 -6 -6 -7 -7 -7 -7 -7 -7 -7 -7 -7 -7 -7 -6 -6 -6 -6 -5 -4 -3 -2 -1
-8 -7 -7 -6 -6 -7 -7 -8 -9 -2 0 -3 -3 -8 -0 -1 -2 -3 -4 -6 -6 -6 -6 -7 -8 -8 -8 -8 -8 -8 -8 -7 -6 -7 -8 -7 -6 -6 -6 -6 -6 -5 -3 -2
-6 -6 -8 -8 -10 -11 -11 -7 -7 -8 -3 -1 -4 -6 -1 -3 -4 -5 -5 -6 -6 -6 -7 -7 -8 -8 -8 -8 -8 -8 -8 -7 -6 -7 -8 -7 -7 -7 -6 -6 -6 -5 -5 -4
-7 -3 -4 -3 -5 -7 -9 -11 -11 -10 -10 -9 -9 -5 -6 -7 -7 -5 -5 -5 -6 -7 -7 -7 -8 -8 -8 -8 -8 -8 -8 -7 -7 -8 -9 -8 -7 -7 -7 -7 -6 -6 -5 -5
-4 -4 -3 -1 -7 -6 -4 -7 -11 -10 -9 -8 -3 -4 -6 -6 -6 -5 -5 -5 -6 -6 -7 -7 -8 -8 -9 -9 -9 -9 -9 -7 -7 -8 -9 -8 -7 -8 -8 -8 -7 -6 -6 -6
-2 -3 -1 -0 -3 -0 -6 -10 -10 -6 -7 -6 -7 -6 -6 -6 -6 -4 -4 -5 -6 -6 -7 -8 -8 -9 -9 -9 -9 -9 -9 -8 -8 -10 -9 -8 -8 -8 -7 -8 -8 -8 -7 -7
-4 -2 -0 -1 0 -3 -5 -6 -6 -6 -5 -5 -6 -6 -5 -5 -5 -2 -4 -5 -6 -7 -8 -9 -9 -10 -10 -10 -10 -10 -10 -8 -9 -10 -9 -9 -8 -8 -8 -9 -8 -8 -8 -8
-5 -3 -1 -0 -1 -2 -2 -5 -6 -7 -2 -2 -4 -4 -4 -4 -2 -2 -4 -6 -8 -8 -9 -10 -10 -10 -11 -10 -10 -10 -10 -9 -10 -11 -10 -9 -9 -9 -9 -9 -9 -9 -9 -10
-2 -1 -2 1 -1 -1 -4 -6 -7 -2 -3 -3 -3 -3 -3 -3 -3 -3 -6 -8 -9 -10 -10 -10 -10 -11 -10 -10 -10 -10 -10 -10 -10 -11 -10 -9 -9 -9 -9 -9 -9 -9 -9 -11
-3 -2 -2 -1 -2 -2 -5 -5 -3 -2 -2 -3 -3 -3 -3 -4 -4 -7 -8 -9 -10 -10 -10 -10 -11 -11 -11 -10 -11 -11 -10 -10 -11 -11 -10 -10 -10 -10 -10 -10 -10 -10 -9 -11
-2 -3 -2 -3 -1 -0 -2 -1 -2 -2 -3 -3 -3 -3 -4 -5 -7 -8 -9 -10 -10 -10 -10 -11 -11 -11 -11 -11 -11 -11 -11 -12 -12 -11 -11 -11 -11 -10 -10 -11 -11 -11 -10 -11
-2 -1 -2 -2 -2 -1 -1 -2 -2 -2 -3 -3 -4 -4 -6 -7 -8 -9 -10 -10 -10 -10 -10 -11 -12 -12 -12 -11 -12 -12 -12 -12 -12 -12 -11 -11 -11 -11 -11 -11 -11 -11 -11 -11
-2 -1 -1 -1 -1 -1 -2 -2 -3 -3 -3 -4 -5 -5 -7 -9 -10 -11 -11 -11 -10 -11 -13 -13 -14 -14 -12 -13 -13 -12 -12 -12 -12 -12 -12 -12 -12 -12 -11 -11 -11 -11 -11 -11
-4 -2 -1 -1 -3 -2 -1 -2 -3 -3 -4 -4 -5 -8 -9 -10 -11 -11 -11 -10 -11 -14 -14 -16 -16 -13 -14 -13 -13 -12 -13 -13 -12 -12 -12 -11 -12 -12 -11 -12 -12 -12 -12 -12
Wind_Speed
10 2 6 11 8 3 2 3 6 6 5 6 6 5 6 10 22 23 26 27 25 27 24 26 28 26 24 25 28 31 31 31 32 30 31 30 27 20 16 11 23 45 35 41
3 11 10 5 2 1 4 5 5 6 4 6 7 7 8 3 13 24 25 26 22 22 24 26 28 27 28 30 32 32 32 33 34 34 33 32 31 31 27 25 20 28 40 44
8 7 6 1 3 5 3 4 3 3 6 3 5 6 8 10 28 27 26 23 22 21 20 22 23 25 24 29 34 34 34 33 33 35 36 34 31 28 29 32 34 28 25 33
7 11 7 4 5 4 5 5 6 6 6 2 6 5 3 17 14 18 20 21 18 16 17 20 22 23 26 29 31 34 34 33 33 33 35 36 37 38 33 34 35 39 36 32
5 3 6 4 5 1 2 5 4 3 5 6 4 4 6 16 10 11 16 17 15 15 16 15 15 18 21 27 30 34 37 40 38 34 33 34 35 37 36 34 37 40 44 44
7 4 2 2 5 5 3 3 3 4 2 4 12 9 1 9 16 9 15 15 14 12 10 11 15 20 25 30 30 37 37 37 36 38 36 32 33 35 38 36 36 38 39 46
6 4 5 7 2 3 3 4 3 3 2 6 5 7 6 12 13 14 14 15 10 10 9 12 14 22 28 32 32 40 41 38 35 34 35 35 32 32 33 32 31 32 37 40
6 4 10 6 6 3 6 6 4 3 2 4 8 2 4 12 18 17 14 8 9 7 10 12 16 21 27 32 35 39 39 38 34 32 33 33 31 30 32 32 28 27 26 30
3 7 7 7 4 6 1 2 1 1 4 1 3 4 6 10 10 14 12 9 8 11 15 17 18 21 25 27 34 37 37 35 33 31 31 31 30 30 29 30 28 24 24 26
2 3 3 3 7 4 3 2 4 2 1 4 5 4 5 8 7 10 9 10 12 14 15 14 16 19 21 29 34 34 35 35 35 32 30 30 30 30 29 28 26 25 22 25
5 3 3 6 3 6 2 2 2 2 3 3 1 1 5 8 7 7 9 9 9 10 13 13 15 19 26 30 33 35 35 37 34 32 31 29 28 31 28 27 24 23 20 21
2 4 4 8 8 8 7 5 7 4 5 2 3 3 3 7 10 12 8 8 9 12 16 17 19 24 29 30 29 32 33 37 33 32 32 30 28 28 29 27 24 22 19 19
6 2 2 3 4 1 3 4 4 5 3 4 3 3 4 7 11 11 7 10 13 14 15 18 21 24 24 26 27 28 31 33 32 36 34 33 29 27 32 27 25 23 21 18
7 2 5 7 4 4 3 7 7 7 4 4 5 8 7 4 6 8 7 10 10 11 13 15 17 18 21 24 27 28 33 30 29 34 34 32 31 27 28 29 29 24 21 17
4 3 1 5 7 7 6 7 11 10 8 7 8 10 8 6 7 12 10 8 7 10 13 16 18 20 23 26 25 30 32 28 27 34 34 28 32 31 26 27 27 28 23 21
2 3 3 3 6 9 11 8 6 7 10 8 7 3 6 11 12 10 7 7 11 13 14 16 18 20 23 24 25 29 31 26 28 34 33 28 29 31 32 32 26 27 24 25
6 4 4 4 5 7 7 7 8 5 5 4 4 5 8 6 7 7 8 8 11 12 13 15 17 20 22 22 23 27 29 24 29 35 32 29 28 29 28 28 27 27 25 23
5 5 2 2 3 7 6 6 4 1 5 6 5 8 11 9 12 13 10 7 8 12 13 15 16 20 21 20 23 25 26 22 30 35 31 29 28 27 26 28 24 24 25 24
5 4 1 3 3 5 2 4 4 3 2 5 6 8 13 12 11 14 10 9 11 10 13 14 17 17 18 22 22 24 25 25 31 34 30 28 27 27 27 27 24 25 25 22
10 4 4 1 3 4 3 7 16 8 1 9 16 11 11 8 2 1 9 10 10 9 13 14 13 16 18 19 21 25 23 28 32 33 29 25 26 26 26 26 25 25 26 25
3 0 5 2 2 5 5 10 10 4 5 12 16 13 11 4 1 5 5 8 11 10 9 11 15 16 17 19 21 21 23 27 31 30 25 22 24 24 24 24 24 23 25 27
6 6 3 1 1 5 18 8 4 7 13 11 10 9 7 3 5 4 8 9 10 10 12 14 16 15 16 19 21 21 24 28 29 25 24 21 23 23 24 24 23 22 25 30
0 6 5 6 5 6 15 20 16 11 15 11 8 5 3 4 8 7 7 9 9 11 14 17 17 15 15 17 18 21 25 27 25 24 23 23 24 24 24 26 25 25 26 30
3 5 4 3 1 12 19 16 14 13 13 11 8 5 5 5 6 5 7 7 11 14 15 16 17 16 16 17 18 19 22 24 23 26 23 23 26 27 23 25 24 25 26 28
6 8 6 2 2 15 16 16 13 12 10 9 5 2 3 4 4 5 5 8 12 15 15 16 17 16 16 19 17 19 23 23 24 23 21 23 26 27 24 26 24 23 21 21
8 6 4 4 12 9 14 19 12 11 9 6 6 10 6 2 2 4 7 11 14 14 15 16 16 14 19 19 19 20 21 21 24 22 21 24 25 23 23 26 25 20 19 18
Wind_Direction
229 177 231 227 204 190 325 309 319 305 292 152 178 196 258 293 105 93 81 70 60 52 43 28 22 12 8 8 2 359 352 347 341 336 323 312 307 287 297 294 275 240 258 258
248 227 241 205 142 341 316 305 283 275 310 59 348 296 275 111 110 97 88 73 62 44 35 24 18 15 4 357 358 359 356 352 349 342 338 327 319 308 286 285 267 252 252 259
208 220 90 5 280 285 301 279 323 315 341 7 340 296 259 122 93 85 80 77 64 53 38 28 18 11 357 351 349 349 350 352 347 343 338 328 321 307 291 268 266 260 255 257
242 237 154 182 247 275 270 50 28 5 17 255 61 286 24 133 98 89 88 79 74 59 39 27 6 352 344 344 343 344 346 347 347 346 340 336 331 325 314 305 284 267 262 268
258 127 143 203 258 244 121 56 31 324 309 329 185 262 246 133 115 110 96 87 71 52 40 32 359 339 339 344 349 348 346 344 345 346 344 337 329 322 316 311 302 288 271 263
237 105 64 107 69 56 29 52 310 246 155 286 245 197 299 207 140 118 102 88 70 53 27 4 340 332 343 343 344 345 344 341 339 338 341 339 330 324 319 318 313 306 294 273
289 168 144 122 73 143 92 58 327 346 140 226 309 174 73 89 97 105 105 77 53 40 21 352 338 339 342 341 342 341 340 340 337 337 338 338 332 324 321 317 317 314 305 295
187 270 169 155 180 157 187 162 164 252 187 297 317 333 108 97 93 97 101 92 58 42 4 11 354 343 340 341 338 339 340 339 338 338 337 337 336 327 320 320 310 314 318 306
179 232 94 131 135 127 182 155 115 349 327 23 223 92 109 142 140 138 136 105 59 28 10 357 341 342 341 338 338 339 341 342 341 342 339 337 335 331 322 317 309 308 321 325
90 110 129 60 54 15 61 328 61 354 270 246 280 115 164 169 117 92 71 52 39 16 360 352 345 342 342 341 341 341 345 347 346 343 341 339 337 335 328 321 319 305 314 334
120 106 183 103 177 181 117 208 182 161 170 211 320 62 131 105 104 97 71 56 44 15 7 4 358 351 346 341 341 344 344 347 346 348 346 345 338 341 336 329 325 322 322 326
104 136 191 211 178 196 177 193 167 139 254 236 170 218 90 105 106 95 68 29 24 14 358 356 353 346 342 343 344 346 343 345 350 351 349 350 342 343 344 342 336 335 336 340
167 210 117 335 14 10 201 188 170 124 108 180 131 255 144 124 108 90 55 29 24 0 353 352 349 349 346 346 345 347 342 350 353 353 349 353 351 349 351 351 349 344 343 1
113 161 169 196 149 177 202 207 226 160 144 183 219 252 177 133 128 104 73 44 17 2 356 356 351 348 345 343 343 344 344 355 348 351 353 353 360 354 351 354 355 356 359 2
103 155 330 300 302 292 247 218 216 237 181 179 218 241 135 129 104 89 65 45 20 11 7 360 352 347 342 345 345 343 349 353 346 348 354 360 354 357 1 359 360 3 2 11
54 189 115 273 274 277 263 236 246 247 240 231 218 116 132 104 89 79 70 44 19 11 359 350 346 342 343 346 342 343 350 352 339 346 353 358 358 357 0 359 1 4 5 8
144 142 150 243 249 273 276 223 243 249 252 194 163 144 131 100 95 124 96 43 19 4 354 346 342 340 343 346 342 343 348 341 338 345 350 356 353 356 358 354 356 357 358 354
142 149 127 233 330 236 221 189 218 295 251 129 135 103 104 99 88 96 69 37 11 358 351 347 340 340 342 339 340 341 349 336 339 345 351 352 353 355 356 352 358 357 356 1
190 144 173 160 218 277 28 119 125 136 79 35 108 94 75 56 80 70 38 19 354 344 337 338 338 339 340 338 338 338 345 337 340 347 350 354 359 358 355 2 5 5 2 5
193 144 146 158 205 234 263 100 101 84 348 12 91 78 73 59 69 112 5 356 4 357 346 341 342 343 346 344 337 339 341 336 343 346 349 360 0 359 358 5 6 6 7 7
148 22 181 190 243 289 172 114 111 113 222 83 79 79 71 88 77 340 1 10 0 0 356 340 339 349 349 339 336 345 337 340 341 342 350 1 359 0 360 2 6 6 360 4
156 159 175 145 60 271 141 120 153 144 114 115 101 90 77 47 353 52 21 11 3 357 347 338 338 344 336 331 333 340 335 336 336 345 354 1 359 2 0 2 2 5 1 1
158 172 175 157 210 83 101 108 119 155 141 126 122 108 119 61 51 31 20 10 349 341 332 328 332 330 330 333 337 333 335 335 344 353 0 4 3 1 3 5 6 6 5 360
189 140 121 93 169 110 112 110 112 122 125 125 110 105 115 77 35 10 2 331 323 330 332 332 335 341 343 340 339 335 338 346 354 357 2 3 4 1 5 8 6 7 3 0
189 137 141 119 61 122 134 136 136 125 130 124 115 68 63 73 48 20 340 325 331 335 337 345 347 351 350 347 353 354 349 357 356 358 3 5 359 358 2 4 4 3 2 360
168 165 143 207 183 137 144 142 141 132 134 128 122 107 101 117 47 318 318 327 335 348 350 352 357 358 360 1 3 352 355 358 354 357 2 3 351 358 2 354 354 7 5 3
Height
1513 1519 1519 1514 1510 1507 1507 1510 1515 1506 1500 1504 1508 1509 1509 1508 1510 1512 1514 1515 1519 1519 1522 1522 1519 1518 1520 1519 1517 1513 1507 1502 1497 1492 1487 1484 1482 1483 1482 1478 1480 1482 1484 1487
1512 1514 1506 1504 1504 1507 1508 1511 1512 1505 1499 1503 1509 1512 1507 1509 1511 1512 1513 1515 1517 1520 1518 1518 1519 1522 1519 1517 1515 1514 1508 1503 1497 1493 1489 1484 1480 1477 1477 1475 1476 1473 1474 1478
1510 1502 1499 1501 1505 1506 1506 1509 1510 1511 1507 1503 1506 1510 1504 1505 1512 1516 1518 1518 1518 1519 1521 1520 1523 1521 1520 1517 1513 1511 1507 1502 1499 1491 1484 1479 1476 1474 1469 1468 1466 1465 1463 1461
1499 1494 1498 1503 1505 1504 1512 1507 1508 1510 1517 1528 1512 1533 1500 1503 1514 1515 1520 1520 1521 1521 1523 1523 1521 1521 1520 1517 1515 1510 1505 1500 1497 1492 1483 1476 1467 1462 1462 1460 1457 1456 1455 1451
1501 1496 1500 1503 1503 1501 1508 1508 1511 1514 1520 1523 1516 1527 1507 1500 1516 1518 1520 1523 1524 1524 1524 1524 1526 1523 1521 1516 1511 1509 1503 1498 1493 1489 1482 1474 1466 1461 1456 1454 1450 1447 1444 1442
1495 1496 1498 1501 1504 1505 1506 1506 1510 1513 1520 1532 1507 1517 1511 1505 1508 1517 1520 1524 1525 1525 1525 1525 1524 1521 1518 1513 1512 1507 1502 1498 1492 1485 1479 1474 1467 1460 1451 1443 1439 1436 1433 1429
1498 1496 1496 1499 1507 1508 1509 1517 1535 1531 1533 1529 1494 1505 1525 1515 1516 1517 1521 1525 1527 1528 1527 1526 1521 1517 1514 1513 1510 1505 1500 1496 1491 1484 1477 1471 1464 1458 1452 1443 1436 1431 1425 1420
1506 1509 1496 1498 1502 1506 1511 1516 1538 1526 1527 1526 1498 1507 1526 1521 1521 1522 1525 1526 1527 1528 1526 1522 1518 1516 1514 1510 1507 1503 1497 1492 1487 1480 1473 1467 1462 1455 1448 1441 1436 1430 1424 1418
1495 1497 1488 1494 1497 1503 1506 1517 1510 1521 1520 1525 1515 1523 1525 1523 1523 1523 1525 1525 1525 1524 1521 1519 1517 1514 1512 1509 1505 1500 1495 1490 1484 1477 1470 1463 1458 1450 1443 1437 1433 1427 1420 1415
1492 1507 1495 1499 1500 1504 1506 1510 1526 1530 1534 1528 1514 1511 1519 1519 1521 1522 1523 1523 1522 1521 1521 1520 1518 1515 1512 1507 1501 1496 1492 1487 1480 1474 1467 1459 1454 1446 1440 1435 1428 1422 1416 1410
1487 1497 1501 1501 1506 1508 1513 1514 1513 1518 1528 1530 1526 1526 1511 1515 1519 1522 1523 1525 1525 1524 1523 1521 1518 1514 1509 1504 1498 1494 1489 1484 1477 1471 1463 1457 1451 1443 1437 1431 1425 1419 1411 1406
1486 1495 1505 1500 1495 1495 1501 1505 1512 1538 1528 1535 1538 1528 1518 1516 1518 1521 1523 1524 1523 1522 1521 1518 1515 1510 1505 1501 1497 1493 1488 1482 1475 1469 1462 1455 1449 1442 1436 1429 1422 1416 1410 1404
1485 1498 1508 1501 1503 1497 1499 1499 1502 1513 1525 1523 1546 1527 1518 1516 1518 1520 1520 1521 1521 1521 1520 1516 1512 1509 1505 1501 1497 1493 1487 1480 1474 1467 1460 1453 1446 1440 1434 1427 1420 1415 1408 1401
1479 1489 1494 1501 1496 1497 1502 1497 1497 1505 1525 1520 1523 1515 1515 1515 1515 1515 1518 1520 1521 1520 1519 1516 1513 1510 1505 1501 1496 1491 1486 1479 1474 1467 1459 1452 1446 1440 1434 1426 1419 1414 1408 1403
1482 1495 1490 1491 1489 1489 1490 1492 1494 1496 1501 1514 1508 1505 1507 1511 1513 1514 1518 1518 1519 1518 1516 1513 1510 1506 1502 1498 1494 1489 1484 1479 1473 1466 1459 1453 1446 1440 1433 1427 1420 1414 1408 1404
1483 1501 1492 1496 1492 1488 1489 1487 1487 1488 1489 1492 1494 1500 1505 1506 1508 1512 1515 1515 1514 1514 1513 1511 1509 1505 1501 1497 1492 1487 1483 1478 1472 1465 1458 1451 1446 1439 1431 1425 1419 1414 1408 1404
1488 1492 1494 1498 1489 1490 1494 1486 1484 1485 1486 1488 1499 1498 1501 1504 1506 1509 1509 1511 1513 1513 1512 1510 1507 1504 1500 1496 1491 1486 1482 1476 1470 1464 1457 1451 1445 1438 1431 1426 1420 1412 1408 1404
1485 1491 1495 1499 1494 1497 1479 1473 1476 1482 1481 1484 1489 1494 1498 1502 1503 1506 1508 1510 1512 1512 1511 1509 1505 1502 1498 1494 1490 1485 1481 1474 1469 1463 1457 1451 1444 1438 1433 1427 1421 1416 1411 1403
1480 1488 1498 1507 1497 1483 1474 1474 1478 1481 1488 1487 1489 1494 1497 1500 1503 1509 1510 1511 1511 1511 1509 1507 1503 1500 1496 1492 1488 1483 1479 1473 1469 1463 1457 1451 1445 1438 1433 1427 1422 1418 1412 1406
1479 1483 1498 1498 1498 1502 1482 1475 1477 1481 1501 1492 1491 1495 1497 1500 1508 1511 1510 1510 1510 1509 1507 1504 1501 1498 1495 1490 1485 1481 1477 1472 1467 1462 1456 1451 1446 1440 1434 1429 1423 1419 1414 1409
1486 1492 1501 1498 1505 1488 1477 1477 1479 1495 1504 1494 1494 1497 1500 1505 1509 1509 1509 1510 1510 1507 1504 1501 1498 1495 1492 1487 1483 1480 1475 1471 1467 1461 1456 1451 1447 1442 1436 1430 1424 1419 1416 1411
1489 1497 1502 1499 1508 1500 1474 1480 1487 1492 1492 1494 1497 1499 1501 1504 1506 1508 1508 1508 1507 1504 1500 1498 1495 1493 1489 1485 1482 1479 1474 1470 1465 1460 1454 1450 1446 1442 1437 1431 1426 1421 1415 1409
1485 1481 1489 1488 1488 1478 1476 1480 1486 1488 1491 1495 1497 1499 1501 1503 1505 1506 1506 1505 1503 1501 1498 1496 1493 1491 1488 1485 1481 1477 1473 1468 1463 1458 1454 1449 1445 1440 1435 1430 1425 1419 1414 1409
1469 1470 1481 1480 1479 1480 1481 1485 1487 1490 1492 1495 1498 1499 1500 1502 1505 1505 1504 1502 1501 1499 1497 1494 1491 1489 1487 1483 1480 1477 1472 1467 1462 1457 1452 1448 1443 1440 1435 1430 1426 1421 1416 1411
1466 1467 1474 1478 1477 1480 1483 1485 1487 1491 1494 1497 1497 1498 1501 1503 1504 1503 1502 1500 1500 1498 1495 1493 1490 1488 1485 1481 1478 1475 1470 1466 1461 1457 1453 1448 1443 1439 1434 1430 1426 1422 1419 1416
1459 1463 1472 1478 1472 1476 1482 1486 1487 1492 1495 1497 1498 1500 1501 1501 1501 1500 1500 1499 1498 1496 1493 1491 1488 1486 1483 1480 1477 1474 1469 1465 1461 1456 1452 1448 1444 1440 1435 1431 1426 1424 1421 1417